Location: Newark
(23.3970°S, 47.6010°W)
Time: 11:31:45
(UTC+00:00)

Tiros 1 despin weight - Pass Details

Date: 21 February 2020
Orbit: 593 x 642 km, 48.2° (Epoch: 06 April)

Event Time Altitude Azimuth Distance (km) Brightness Sun altitude
Rises 22:20:10 0° 215° (SW) 2,960 ? -8.4°
Reaches altitude 10° 22:22:42 10° 206° (SSW) 2,043 ? -9.0°
Maximum altitude 22:27:01 35° 140° (SE) 1,032 ? -9.9°
Enters shadow 22:30:27 14° 78° (ENE) 1,734 ? -10.7°
Drops below altitude 10° 22:31:16 10° 73° (ENE) 2,006 - -10.9°
Sets 22:33:43 0° 64° (ENE) 2,900 - -11.4°
